TimeCDT,TemperatureF,Dew PointF,Humidity,Sea Level PressureIn,VisibilityMPH,Wind Direction,Wind SpeedMPH,Gust SpeedMPH,PrecipitationIn,Events,Conditions,WindDirDegrees,DateUTC
12:53 AM,69.1,64.9,87,29.96,10.0,Calm,Calm,-,N/A,,Clear,0,2013-09-08 05:53:00
1:53 AM,68.0,64.9,90,29.96,10.0,Calm,Calm,-,N/A,,Clear,0,2013-09-08 06:53:00
2:53 AM,68.0,64.9,90,29.94,9.0,Calm,Calm,-,N/A,,Clear,0,2013-09-08 07:53:00
3:53 AM,68.0,64.9,90,29.95,7.0,Calm,Calm,-,N/A,,Clear,0,2013-09-08 08:53:00
4:53 AM,66.9,64.9,93,29.95,7.0,Calm,Calm,-,N/A,,Clear,0,2013-09-08 09:53:00
5:53 AM,66.0,64.0,93,29.96,5.0,SE,3.5,-,N/A,,Clear,130,2013-09-08 10:53:00
6:53 AM,66.9,64.9,93,29.95,6.0,Calm,Calm,-,N/A,,Clear,0,2013-09-08 11:53:00
7:53 AM,72.0,69.1,91,29.96,5.0,Calm,Calm,-,N/A,,Clear,0,2013-09-08 12:53:00
8:53 AM,73.9,69.1,85,29.97,7.0,Calm,Calm,-,N/A,,Clear,0,2013-09-08 13:53:00
9:53 AM,75.9,69.1,79,29.98,9.0,Calm,Calm,-,N/A,,Clear,0,2013-09-08 14:53:00
10:53 AM,79.0,70.0,74,29.98,9.0,Calm,Calm,-,N/A,,Clear,0,2013-09-08 15:53:00
11:53 AM,84.9,70.0,61,29.99,10.0,North,8.1,-,N/A,,Partly Cloudy,360,2013-09-08 16:53:00
12:53 PM,87.1,70.0,57,29.96,10.0,ENE,8.1,-,N/A,,Clear,60,2013-09-08 17:53:00
1:53 PM,84.9,71.1,63,29.95,10.0,East,4.6,-,N/A,,Clear,100,2013-09-08 18:53:00
2:53 PM,84.9,72.0,65,29.93,10.0,Calm,Calm,-,N/A,,Clear,0,2013-09-08 19:53:00
3:53 PM,84.9,73.0,67,29.91,10.0,ESE,3.5,-,N/A,,Clear,110,2013-09-08 20:53:00
4:53 PM,86.0,73.0,65,29.91,10.0,ESE,4.6,-,N/A,,Clear,110,2013-09-08 21:53:00
5:53 PM,84.0,73.9,72,29.91,10.0,Calm,Calm,-,N/A,,Clear,0,2013-09-08 22:53:00
6:53 PM,82.9,73.9,74,29.91,9.0,Calm,Calm,-,N/A,,Partly Cloudy,0,2013-09-08 23:53:00
7:53 PM,79.0,73.9,84,29.92,8.0,Calm,Calm,-,N/A,,Scattered Clouds,0,2013-09-09 00:53:00
8:53 PM,77.0,73.0,88,29.93,8.0,Calm,Calm,-,N/A,,Mostly Cloudy,0,2013-09-09 01:53:00
9:53 PM,78.1,73.9,87,29.93,8.0,Calm,Calm,-,N/A,,Overcast,0,2013-09-09 02:53:00
10:53 PM,78.1,73.9,87,29.94,8.0,Calm,Calm,-,N/A,,Mostly Cloudy,0,2013-09-09 03:53:00
11:53 PM,75.0,73.0,94,29.93,4.0,Calm,Calm,-,N/A,,Scattered Clouds,0,2013-09-09 04:53:00